Location: Saint-Palais-sur-Mer
(45.6429°N, 1.0859°W)
Time: 15:05:54
(UTC+02:00)

METEOR M2 - Pass Details

Date: 24 June 2025
Orbit: 817 x 824 km, 98.5° (Epoch: 17 July)

Event Time Altitude Azimuth Distance (km) Brightness Sun altitude
Rises 05:27:55 0° 30° (NNE) 3,366 ? -7.2°
Reaches altitude 10° 05:31:21 10° 53° (NE) 2,429 ? -6.8°
Maximum altitude 05:34:24 15° 88° (E) 2,077 ? -6.4°
Drops below altitude 10° 05:37:27 10° 123° (ESE) 2,420 ? -6.0°
Sets 05:40:51 0° 146° (SE) 3,348 ? -5.6°
